www.pogodaiklimat.ru

Погода и климат >> Архив погоды >> Россия >> Хабаровский край >> Советская Гавань


АРХИВ ПОГОДЫ в Советской Гавани

Время (UTC), дата Ветер
(напр.,м/с)
 
Видим.   Явления Облачность Т
(С)
Тd
(С)
f
(%)
Тe
(С)
Тes
(С)
Комфортность P
(гПа)
Po
(гПа)
Тmin
(С)
Tmax
(С)
R
(мм)
R24
(мм)
S
(см)
06 13.05 СВ 2 50 км 10/3 600 м
[Cu hum Ac trans Ci fib]
+14.8 +3.4 46 +15 +18 1012.2 1009.7
09 13.05 СВ 2 20 км 8/3 600 м
[Sc diur, vesp Ci fib]
+7.6 +3.7 76 +6 +6 1012.0 1009.4 +16.1
12 13.05 С 2 6000 м 8/8 200 м
[St]
+3.3 +2.4 94 0 0 1013.1 1010.5
15 13.05 штиль 0 200 м туман ?/? +3.3 +2.7 96 +2 +2 1013.2 1010.6
18 13.05 ЮЗ 2 200 м туман ?/? +3.1 +2.6 97 -0 -0 1012.8 1010.2
21 13.05 СЗ 2 200 м туман туман ?/? +2.8 +2.5 98 -1 -1 1013.7 1011.0 +2.8
00 14.05 С 2 20 км 3/0 300 м
[Cs]
+6.3 +4.9 91 +4 +14 опасность
простуды
1013.6 1011.0 +2.5
03 14.05 С 2 20 км 6/1 600 м
[Cu hum Ci fib]
+13.3 +5.2 58 +13 +26 опасность
простуды
1012.1 1009.6
06 14.05 С 1 50 км 6/0
[Ac lent Ci fib]
+14.4 +5.0 53 +15 +24 1011.5 1009.0
09 14.05 ЮЗ 2 20 км 8/3 600 м
[Sc Ac trans Ci fib]
+8.6 +5.0 78 +7 +7 1012.4 1009.9 +15.1
12 14.05 СВ 2 10 км 10/6 600 м
[St Ac trans]
+4.6 +3.8 95 +2 +2 1014.0 1011.4
15 14.05 СЗ 2 500 м туман ?/? +4.1 +3.7 97 +1 +1 1014.4 1011.8
18 14.05 штиль 0 800 м туман ?/? +4.2 +3.8 97 +3 +3 1014.2 1011.6
21 14.05 штиль 0 500 м туман ?/? +4.1 +3.7 97 +3 +3 1013.9 1011.3 +4.0
00 15.05 СВ 2 4000 м слаб. морось {туман} 10/10 300 м
[St]
+4.6 +4.2 97 +2 +2 1013.9 1011.3
03 15.05 С 2 4000 м дымка 10/10 300 м
[St]
+8.0 +4.5 79 +6 +6 1013.0 1010.4
06 15.05 С 2 20 км {морось} 10/4 600 м
[Sc Ac trans Cc]
+10.0 +4.7 70 +9 +11 1012.2 1009.7
09 15.05 СЗ 2 10 км 10/8 300 м
[Cb cap Ac As]
+5.4 +4.1 91 +3 +3 1012.0 1009.4 +11.3
12 15.05 СЗ 2 10 км слаб. ливневой дождь 10/10 300 м
[Cb cap]
+5.9 +4.7 92 +3 +3 1013.8 1011.2
15 15.05 штиль 0 12 км в посл. час ливневой дождь 10/8 300 м
[Cb cap Ac trans]
+5.4 +4.7 95 +4 +4 1013.7 1011.1
18 15.05 В 2 10 км {ливн. осадки} 10/10 300 м
[St]
+5.3 +4.8 97 +3 +3 1013.5 1010.9
21 15.05 С 2 2000 м дымка 10/10 300 м
[St]
+6.8 +6.1 95 +4 +4 1015.1 1012.5 +5.0 0.3
00 16.05 С 2 10 км слаб. ливневой дождь 10/8 300 м
[Cb cap Ac As]
+9.0 +7.9 93 +7 +8 1014.4 1011.8
03 16.05 Ю 10-16
{18}
50 км {ливн. осадки} 10/3 600 м
[Cb cap Ac und Ci fib]
+12.7 +8.2 74 +9 +10 1013.6 1011.1
06 16.05 Ю 16-16
{20}
20 км {ливн. осадки} 8/3 300 м
[St Ci fib]
+11.9 +7.4 74 +7 +7 1012.5 1009.9
09 16.05 Ю 12-18
{20}
20 км 10/4 600 м
[Cb cap Ac trans Ci fib]
+9.5 +6.9 84 +4 +4 1012.6 1010.0 +14.0 0.0
12 16.05 -14
{16}
15 км н/о +8.8 +7.2 90 +4 +4 1013.8 1011.3
15 16.05 ЮЗ 2
{14}
14 км 10/10 600 м
[Sc]
+9.2 +6.9 86 +7 +7 1014.7 1012.1
18 16.05 Ю 2 9000 м ливневой дождь 10/10 600 м
[Cb cap]
+9.1 +7.9 92 +7 +7 1013.8 1011.2
21 16.05 Ю 2 10 км {ливн. осадки} 10/8 600 м
[Cb cap Ac trans Ci fib]
+8.0 +6.9 93 +6 +6 1014.5 1011.9 +7.8 4
00 17.05 ЮВ 4 10 км 10/8 300 м
[Cb cap Ac trans]
+8.6 +6.9 89 +5 +6 1013.6 1010.7 +7.6
03 17.05 Ю 6-12
{14}
20 км 10/5 300 м
[Cb cap Ac As]
+9.5 +6.9 84 +6 +7 1011.6 1009.0
06 17.05 Ю 6-12
{12}
50 км {ливн. осадки} 10/3 600 м
[Sc Ac trans Ci fib]
+10.5 +7.3 81 +7 +9 1010.7 1007.9
09 17.05 Ю 6-12
{14}
50 км 10/3 600 м
[Sc Ac trans Ci fib]
+10.5 +7.2 80 +7 +7 1009.6 1007.1 +10.5 0.4
12 17.05 З 2
{12}
28 км 10/4 600 м
[Sc Ac und Ci fib]
+6.8 +5.2 90 +4 +4 1010.6 1008.0
15 17.05 В 2 30 км 10/3 300 м
[St Cs]
+5.1 +4.3 95 +2 +2 1011.4 1008.8
18 17.05 В 2 100 м туман ?/? +4.2 +3.7 97 +1 +1 1011.7 1009.1
21 17.05 В 2 4000 м дымка {туман} 10/8 300 м
[St Ac und]
+5.6 +5.1 97 +3 +3 1011.2 1008.6 +3.7
00 18.05 С 2 20 км 10/1 300 м
[St Ac As]
+8.8 +5.9 82 +7 +10 1009.3 1006.7
03 18.05 С 2 20 км 10/1 600 м
[Cu hum Ac As]
+9.5 +6.1 79 +8 +13 1008.2 1005.7
06 18.05 С 2 20 км 10/4 600 м
[Cu Sc Ac lent Ci fib]
+14.9 +7.4 61 +15 +18 1006.3 1003.8
09 18.05 В 2 50 км 10/3 600 м
[Cb cap Ac trans Cc]
+9.2 +5.9 80 +8 +8 1005.7 1003.2 +23.2
12 18.05 штиль 0 1000 м 10/8 300 м
[Cb cap Ac As]
+5.1 +4.3 95 +4 +4 1004.8 1002.2
15 18.05 штиль 0 500 м туман 10/0
[]
+3.9 +3.4 97 +3 +3 1004.7 1002.2
18 18.05 штиль 0 7000 м слаб. ливневой дождь {туман} 10/8 300 м
[Cb cap Ac As]
+7.4 +6.2 92 +6 +6 1006.8 1004.3
21 18.05 З 6-10
{10}
50 км {ливн. осадки, туман} 10/8 600 м
[Sc Ac trans]
+15.6 +1.2 38 +14 +14 1008.4 1005.9 +3.9 0.0
00 19.05 З 2 50 км {ливн. осадки} 10/3 600 м
[Sc As trans Cc]
+19.4 +0.5 28 +20 +24 1009.4 1007.0
03 19.05 Ю 4 50 км 10/5 600 м
[Sc Ac trans Ci fib]
+22.1 +0.2 23 +21 +24 комфорт 1009.2 1006.7
06 19.05 Ю 4 50 км 10/5 600 м
[Sc As trans]
+21.5 +1.8 27 +21 +23 комфорт 1008.5 1006.0
09 19.05 З 4 50 км 10/6 600 м
[Sc Ac lent Ci fib]
+21.8 +0.7 25 +21 +21 комфорт 1008.0 1005.6 +23.1
12 19.05 штиль 0 29 км 10/8 600 м
[Sc Ac lent]
+13.5 +4.7 55 +13 +13 1009.0 1006.5
15 19.05 С 2 22 км 10/4 600 м
[Sc Ac As]
+7.5 +4.2 80 +5 +5 1008.7 1006.1
18 19.05 С 2 11 км 10/6 600 м
[Sc Ac As]
+5.0 +4.0 93 +2 +2 1006.7 1004.1
21 19.05 СЗ 2 2000 м туман ?/? +5.8 +5.2 96 +3 +3 1005.8 1003.2 +5.0
00 20.05 СВ 2 2000 м дымка 10/4 50 м
[St Ac As]
+6.4 +4.6 88 +4 +6 1004.6 1002.0
03 20.05 Ю 4 20 км слаб. ливневой дождь 10/6 600 м
[Cb cap Ac As]
+11.1 +7.9 81 +9 +10 1003.2 1000.7

 

Местоположение метеостанции Советская Гавань (Хабаровский край, Россия): широта 49.00 долгота 140.30 высота над уровнем моря 24 м.

В архиве по умолчанию представлена погода в Советской Гавани за последнюю неделю. Архивные данные за месяц целиком и за предыдущие месяцы, начиная с января 2011 года, Вы можете получить, выбрав интересующий диапазон дат из раскрывающегося списка и нажав кнопку "Ввод!".


*Определитесь, кто Вы:
робот инопланетянин человек

Внимание! Время в таблицах - всемирное. Для получения местного времени необходимо прибавить поправку, которая равна 10 ч.

Смотрите также архив погоды в соседних городах и на ближайших метеорологических станциях:

Погода в Тумнине (Хабаровский край, Россия) (75 км)
Погода в Мопау (Хабаровский край, Россия) (103 км)
Погода в Углегорске (Сахалинская область, Россия) (124 км)
Погода в Солекуль (Хабаровский край, Россия) (169 км)
Погода в Пильво (Сахалинская область, Россия) (175 км)
Погода в Ильинском (Сахалинская область, Россия) (180 км)
Погода в Макарове (Сахалинская область, Россия) (181 км)
Погода в Сегжеме (Хабаровский край, Россия) (203 км)
Погода в Поронайске (Сахалинская область, Россия) (205 км)
Погода в Оноре (Сахалинская область, Россия) (209 км)

Пояснения к столбцам:

Ветер - указаны скорость ветра в м/с - средняя за 10 мин, порывы в срок и между сроками (в фигурных скобках) и направление, откуда дует ветер: С - северный, СВ - северо-восточный, В - восточный, ЮВ - юго-восточный, Ю - южный, ЮЗ - юго-западный, З - западный, СЗ - северо-западный.
Видимость - горизонтальная дальность видимости в метрах или километрах. При видимости от 1 до 10 км при отсутствии осадков обычно наблюдается дымка, при ухудшении видимости до 1 км и менее - туман. В сухую погоду видимость может ухудшаться дымом, пылью или мглою.
Явления - указаны атмосферные явления, наблюдавшиеся в срок или в последний час перед сроком; фигурными скобками обозначены явления, наблюдавшиеся между сроками (за 1-3 часа до срока); квадратными скобками обозначены град или гололедные отложения с указанием их диаметра в мм.
Облачность - указаны через наклонную черту общая и нижняя облачность в баллах и высота нижней границы облаков в метрах; квадратными скобками обозначены формы облаков: Ci - перистые, Cs - перисто-слоистые, Cc - перисто-кучевые, Ac - высококучевые, As - высокослоистые, Sc - слоисто-кучевые, Ns - слоисто-дождевые, Cu - кучевые, Cb - кучево-дождевые. Подробнее классификацию облаков см. в Атласе облаков (PDF).
T - Температура воздуха - температура, измеренная на высоте 2 м над землей.
Td - Температура точки росы - температура, при понижении до которой содержащийся в воздухе водяной пар достигнет насыщения.
f - Относительная влажность воздуха - влажноcть воздуха, измеренная на высоте 2 м над землей.
Te - Эффективная температура - температура, которую ощущает одетый по сезону человек в тени. Характеристика душности погоды. При расчете учитывается влияние влажности воздуха и скорости ветра на теплоощущения человека.
Tes - Эффективная температура на солнце - температура, которую ощущает человек, с поправкой на солнечный нагрев. Характеристика знойности погоды. Зависит от высоты солнца над горизонтом, облачности и скорости ветра. Ночью, в пасмурную погоду, а также при ветре 12 м/с и более поправка равна нулю.
P - Атмосферное давление - приведенное к уровню моря атмосферное давление.
Po - Атмосферное давление - измеренное на уровне метеостанции атмосферное давление.
Tmin - Минимальная температура - минимум температуры воздуха на высоте 2 м над землей.
Tmax - Максимальная температура - максимум температуры воздуха на высоте 2 м над землей.
R - Количество осадков - Количество выпавших осадков за период времени, мм. При наведении курсора мыши на число - период времени, за который выпало указанное количество осадков.
R24 - Количество осадков - Количество выпавших осадков за 24 часа, мм.
S - Снежный покров - Высота снежного покрова, см. При наведении курсора мыши на число - состояние снежного покрова и степень покрытия местности в баллах.